Location: Newark
(44.9861°N, 0.2536°E)
Time: 19:20:32
(UTC+00:00)

HuskySat-1 - Pass Details

Date: 19 July 2020
Orbit: 457 x 471 km, 51.6° (Epoch: 11 August)

Event Time Altitude Azimuth Distance (km) Brightness Sun altitude
Rises 00:08:15 0° 287° (WNW) 2,498 ? -24.2°
Reaches altitude 10° 00:10:38 10° 299° (WNW) 1,619 ? -24.2°
Maximum altitude 00:13:49 27° 0° (N) 914 ? -24.2°
Drops below altitude 10° 00:16:59 10° 61° (ENE) 1,611 ? -24.2°
Sets 00:19:20 0° 73° (ENE) 2,483 ? -24.1°
